Terminal Aerodrome Forecast
Issued by NWS

Home | Current Version | Previous Version | Text Only | Print | Product List | Glossary On
Versions: 1 2 3 4 5 6 7 8 9 10 11 12 13 14 15 16
000
FTUS44 KMAF 190700 AAA
TAFFST
TAF AMD
KFST 190701Z 1907/2006 14008KT P6SM SCT018 OVC022
     FM191400 14012KT P6SM OVC025
      TEMPO 1914/1918 3SM TSRA BR OVC010CB
     FM191800 14012KT P6SM OVC035
      TEMPO 1918/1922 4SM TSRA BR OVC020CB
     FM192200 15011KT P6SM OVC050
      TEMPO 1922/2002 3SM TSRA OVC030CB=

USA.gov is the U.S. government's official web portal to all federal, state and local government web resources and services.